Zurück zum Katalog

CONNECTA IOT-11

AktivKommunikationSSO
NORAD 64557·PAYLOAD·🇹🇷 Turkey

Gestartet Jun 23, 2025 von Vandenberg Space Force Base

Loading…

Nächste Überflüge (nächste 24 Stunden)

TLE

AktuellSource: Space-Track

Epoche: Sep 14, 2026, 06:21 UTC

1 64557U 25135AF  26257.26464126  .00003766  00000-0  17219-3 0  9991
2 64557  97.4794  11.8406 0002473  55.4683 304.6786 15.21162942 68401

Verfolge CONNECTA IOT-11 in Echtzeit mit AllMySat

Download on the App Store